#timestamp,LO_Frequency,Hit,StdDev 
1697814015.9,286046998.9,N
1697814035.7,286046999.1,N
1697814055.6,286046996.9,Y
1697814075.4,286046999.3,P
1697814095.3,286046999.4,P
1697814115.1,286046998.8,P
1697814116.0,286046998.8,Y
1697814135.8,286047000.3,P
1697814155.7,286047004.4,P
1697814175.5,286047001.3,N
1697814195.3,286047001.9,N
1697814215.2,286047001.7,N
1697814235.0,286047003.9,N
1697814235.9,286047003.9,N
1697814255.8,286047004.3,N
1697814275.6,286047004.2,N
1697814295.4,286047004.4,N
1697814315.3,286047001.7,N
1697814335.1,286047002.1,N
1697814355.8,286047001.3,N
1697814375.7,286047001.9,N
1697814395.5,286047000.3,N
1697814415.4,286047000.9,N
1697814435.2,286046999.7,N
1697814455.0,286047002.5,N
1697814455.9,286047002.5,N
1697814475.8,286046999.9,N
1697814495.6,286047000.2,N
1697814515.4,286047002.8,N
1697814535.3,286046999.7,N
1697814555.1,286047002.6,N
1697814575.9,286047002.2,N
1697814595.7,286047002.5,N
1697814615.5,286047002.6,N
1697814635.4,286047002.5,N
1697814655.2,286047002.5,N
1697814705.1,286047001.7,E
1697814715.0,286046999.7,N
1697814715.9,286046999.7,P
1697814735.7,286047001.0,P
1697814755.6,286047000.3,N
1697814775.4,286047000.2,N
1697814795.3,286047002.6,Y
1697814815.1,286047000.8,P
1697814835.8,286046998.8,P
1697814855.7,286047000.7,N
1697814875.5,286047002.3,N
1697814895.3,286046999.7,N
1697814915.2,286047002.6,N
1697814935.0,286046999.8,N
1697814935.9,286046999.8,N
1697814955.8,286047000.7,N
1697814975.6,286047000.9,N
1697814995.4,286046999.0,N
1697815015.3,286046996.6,Y
1697815035.1,286046997.6,P
1697815055.9,286046997.7,N
1697815075.7,286046997.4,N
1697815095.5,286046999.6,N
1697815115.4,286046997.2,N
1697815135.2,286046999.6,N
1697815155.1,286046996.5,N
1697815156.0,286046996.5,N
1697815175.8,286046999.2,N
1697815195.6,286047000.8,N
1697815215.5,286047000.3,N
1697815235.3,286047000.9,N
1697815255.1,286046998.1,N
1697815275.9,286047000.3,N
1697815295.7,286047000.4,N
1697815315.6,286046999.3,N
1697815335.4,286046998.7,N
1697815355.2,286046998.3,N
1697815375.1,286046996.6,N
1697815376.0,286046996.6,N
1697815395.8,286046996.5,N
1697815415.6,286046996.7,N
1697815435.5,286046997.1,N
1697815455.3,286046997.8,N
1697815475.2,286046997.2,N
1697815495.9,286046996.6,N
1697815515.7,286046996.8,N
1697815535.6,286046996.8,N
1697815555.4,286046997.0,N
1697815575.2,286046996.6,N
1697815595.1,286046999.2,N
1697815596.0,286046999.2,N
1697815615.8,286046998.7,N
1697815635.7,286046998.6,N
1697815655.5,286046998.3,N
1697815675.3,286046999.0,N
1697815695.2,286046998.2,N
1697815715.0,286047002.4,N
1697815715.9,286047002.4,N
1697815735.7,286047000.4,N
1697815755.6,286047000.3,N
1697815775.4,286047001.2,N
1697815795.3,286047001.0,N
1697815815.1,286047001.1,N
1697815835.8,286047000.3,N
1697815855.7,286047000.4,N
1697815875.5,286046999.9,N
1697815895.4,286047000.4,N
1697815915.2,286047000.3,N
1697815935.0,286047000.5,N
1697815935.9,286047000.5,N
1697815955.8,286047000.3,N
1697815975.6,286047000.5,N
1697815995.4,286046998.1,N
1697816015.3,286047000.8,N
1697816065.2,286047001.2,E
1697816075.1,286046998.7,N
1697816076.0,286046998.7,P
1697816095.8,286046999.0,P
1697816115.7,286046998.8,Y
1697816135.5,286047000.4,P
1697816155.3,286047000.4,N
1697816175.2,286047000.3,N
1697816195.0,286047000.6,N
1697816195.9,286047000.6,N
1697816215.8,286047000.9,N
1697816235.6,286046998.5,N
1697816255.4,286047000.8,N
1697816275.3,286046998.6,N
1697816295.1,286046998.2,N
1697816315.8,286046999.1,N
1697816335.7,286046998.4,N
1697816355.5,286046998.5,N
1697816375.4,286047000.8,N
1697816395.2,286047000.4,N
1697816415.0,286047002.1,N
1697816415.9,286047002.1,N
1697816435.8,286047002.0,N
1697816455.6,286047002.0,N
1697816475.4,286047001.6,N
1697816495.3,286047002.3,N
1697816515.1,286047002.4,N
1697816535.9,286047002.8,N
1697816555.7,286047001.1,N
1697816575.5,286047000.3,N
1697816595.4,286046999.5,N
1697816615.2,286046996.7,N
1697816635.0,286046996.8,N
1697816635.9,286046996.8,N
1697816655.8,286046998.0,N
1697816675.6,286046995.5,N
1697816695.5,286046995.6,N
1697816715.3,286046996.1,N
1697816735.1,286046994.9,N
1697816755.9,286046995.2,N
1697816775.7,286046996.1,N
1697816795.5,286046995.2,N
1697816815.4,286046997.6,N
1697816835.2,286046995.5,N
1697816855.1,286046995.4,N
1697816856.0,286046995.4,N
1697816875.8,286046995.4,N
1697816895.6,286046995.8,N
1697816915.5,286046995.1,N
1697816935.3,286046995.7,N
1697816955.2,286046994.2,N
1697816975.9,286046996.4,N
1697816995.7,286046993.7,N
1697817015.6,286046993.7,N
1697817035.4,286046993.8,N
1697817055.2,286046994.0,N
1697817075.1,286046993.6,N
1697817076.0,286046993.6,N
1697817095.8,286046994.4,Y
1697817115.7,286046997.3,P
1697817135.5,286046997.4,P
1697817155.3,286046997.6,P
1697817175.2,286046996.2,Y
1697817195.0,286046999.0,P
1697817195.9,286046999.0,N
1697817215.8,286046999.5,N
1697817235.6,286046999.5,N
1697817255.4,286046998.7,N
1697817275.3,286046999.2,N
1697817295.1,286046996.7,Y
1697817315.8,286046996.9,P
1697817335.7,286046999.5,N
1697817355.5,286046999.6,N
1697817375.4,286046997.1,N
1697817395.2,286046997.0,N
1697817415.0,286046996.9,N
1697817415.9,286046996.9,N
1697817435.8,286046999.2,N
1697817455.6,286046999.4,N
1697817475.5,286046996.7,N
1697817495.3,286046997.9,N
1697817515.1,286046996.9,N
1697817535.9,286046997.2,N
1697817555.7,286046996.5,Y
1697817575.5,286046998.9,P
1697817595.4,286046999.2,N
